CREW DRAGON 1 (46920 NORAD) Tracking and Keplerian Element Data
This shows tracking and keplerian element data for the satellite.
Feedback or suggestion? Click here.
Element | Value |
Catalog | 46920 |
Name | CREW DRAGON 1 |
Epoch Orbit | 26542 |
Epoch Day | 18.72774306 |
Epoch Year | 2021 |
RAAN | 1.9657 |
Inclination | 51.6467 |
Eccentricity | 2.6E-05 |
Argument of Perigee | 277.3488 |
Mean Anonmoly | 76.8209 |
Mean Motion | 15.4930008 |
Decay Rate | 5.92E-06 |
L1 | 1 46920U 20084A 21018.72774306 .00000592 00000-0 18682-4 0 9998 |
L2 | 2 46920 51.6467 1.9657 0000260 277.3488 76.8209 15.49300080265428 |
Live tracking and technical data element details for CREW DRAGON 1 (NORAD 46920). CREW DRAGON 1 can be tracked NOW for your location showing map with azimuth and elevation plus other details from your city location.
Track the satellite on the map from your city or location and see movement details for azimuth, elevation, latitude, longitude, range, height, and movement on the map or in text.
IsCatalogInMostPopularTable: catalog: 46920, numindb: 30
Update: records affected: 1
GetName: 46920 CREW DRAGON 1
Hit Count: updated at: Tue, 19 Jan 2021 15:42:51 GMT